El Dorado, AR

8:21 PM CST on November 21, 2017 (GMT -0600)
South Arkansas Regional At Goodwin

Weather History for KELD - December, 2013

Change the Weather History Date:

Sunday, December 29, 2013

  Actual Average Record
Temperature  
Mean Temperature 46 °F 44 °F  
Max Temperature 62 °F 54 °F 79 °F (1984)
Min Temperature 30 °F 33 °F 14 °F (1983)
Degree Days  
Heating Degree Days 19 21  
Month to date heating degree days 587 564  
Since 1 July heating degree days 1172 1043  
Cooling Degree Days 0 0  
Month to date cooling degree days 8 0  
Year to date cooling degree days 2161 2126  
Moisture  
Dew Point 38 °F    
Average Humidity 73    
Maximum Humidity 100    
Minimum Humidity 46    
Precipitation  
Precipitation 0.00 in 0.14 in 1.59 in (1978)
Month to date precipitation 6.56 4.91  
Year to date precipitation 47.49 52.65  
Snow  
Snow 0.00 in - - ()
Month to date snowfall T  
Since 1 July snowfall T  
Snow Depth 0.00 in    
Sea Level Pressure  
Sea Level Pressure 30.07 in    
Wind  
Wind Speed 4 mph (West)    
Max Wind Speed 15 mph    
Max Gust Speed 21 mph    
Visibility 10 miles    
Events      
T = Trace of Precipitation, MM = Missing Value Source: NWS Daily Summary

Daily Weather History Graph

Daily Weather History Graph

Search for Another Location

Airport or City:

Trip Planner

Search our weather history database for the weather conditions in past years. The results will help you decide how hot, cold, wet, or windy it might be!

Date:

Astronomy

Dec. 29, 2013 Rise Set
Actual Time 7:14 AM CST 5:12 PM CST
Civil Twilight 6:46 AM CST 5:40 PM CST
Nautical Twilight 6:15 AM CST 6:11 PM CST
Astronomical Twilight 5:45 AM CST 6:41 PM CST
Moon 4:02 AM CST (12/29) 2:48 PM CST (12/29)
Length of Visible Light 10h 53m
Length of Day
9h 58m
Waning Crescent, 11% of the Moon is Illuminated
Dec 29
Waning Crescent
Jan 1
New
Jan 7
First Quarter
Jan 15
Full
Jan 23
Last Quarter

Hourly Weather History & Observations

Time (CST) Temp. Windchill Dew Point Humidity Pressure Visibility Wind Dir Wind Speed Gust Speed Precip Events Conditions
12:53 AM 37.0 °F - 35.1 °F 93% 30.02 in 10.0 mi Calm Calm - N/A   Clear
1:53 AM 36.0 °F - 35.1 °F 97% 30.01 in 10.0 mi Calm Calm - N/A   Partly Cloudy
2:53 AM 34.0 °F - 34.0 °F 100% 30.03 in 10.0 mi Calm Calm - N/A   Scattered Clouds
3:53 AM 33.1 °F - 32.0 °F 96% 30.01 in 10.0 mi Calm Calm - N/A   Clear
4:53 AM 33.1 °F - 32.0 °F 96% 30.01 in 10.0 mi Calm Calm - N/A   Clear
5:53 AM 32.0 °F - 30.9 °F 96% 30.03 in 10.0 mi Calm Calm - N/A   Clear
6:53 AM 30.9 °F - 30.0 °F 96% 30.05 in 10.0 mi Calm Calm - N/A   Clear
7:53 AM 35.1 °F - 34.0 °F 96% 30.07 in 9.0 mi Calm Calm - N/A   Overcast
8:53 AM 39.9 °F 37.8 °F 37.9 °F 93% 30.08 in 10.0 mi SSW 3.5 mph - N/A   Mostly Cloudy
9:53 AM 46.0 °F 43.9 °F 37.9 °F 73% 30.10 in 10.0 mi SSW 4.6 mph - N/A   Mostly Cloudy
10:53 AM 52.0 °F - 36.0 °F 54% 30.09 in 10.0 mi WSW 3.5 mph - N/A   Overcast
11:53 AM 55.0 °F - 37.0 °F 51% 30.07 in 10.0 mi SSW 4.6 mph - N/A   Mostly Cloudy
12:53 PM 57.9 °F - 37.9 °F 47% 30.04 in 10.0 mi Calm Calm - N/A   Partly Cloudy
1:53 PM 60.1 °F - 39.0 °F 46% 30.02 in 10.0 mi West 4.6 mph - N/A   Clear
2:53 PM 61.0 °F - 39.9 °F 46% 30.02 in 10.0 mi SSW 8.1 mph - N/A   Clear
3:53 PM 61.0 °F - 43.0 °F 52% 30.03 in 10.0 mi South 4.6 mph - N/A   Clear
4:53 PM 55.9 °F - 45.0 °F 67% 30.04 in 10.0 mi Calm Calm - N/A   Scattered Clouds
5:53 PM 53.1 °F - 46.0 °F 77% 30.06 in 10.0 mi Calm Calm - N/A   Overcast
6:53 PM 53.1 °F - 46.9 °F 80% 30.08 in 10.0 mi NNW 5.8 mph - N/A   Overcast
7:53 PM 53.1 °F - 44.1 °F 71% 30.10 in 10.0 mi North 4.6 mph - N/A   Overcast
8:53 PM 53.1 °F - 42.1 °F 66% 30.13 in 10.0 mi NNW 12.7 mph - N/A   Overcast
9:53 PM 50.0 °F - 41.0 °F 71% 30.14 in 10.0 mi North 8.1 mph 20.7 mph N/A   Overcast
10:53 PM 46.9 °F - 39.0 °F 74% 30.17 in 10.0 mi North 9.2 mph - N/A   Overcast
11:53 PM 45.0 °F 39.7 °F 36.0 °F 71% 30.17 in 10.0 mi North 10.4 mph - N/A   Overcast